START_TIME,STEP,MOV.,M35,t_acc.,PL05,t_acc.,PL06,t_acc.,PL07,t_acc.
1979-07-04 15:00:24.690 ,1,0,0.,4.8,10.,4.8,2.,4.8,1.,4.8
1979-07-04 15:00:29.490 ,1,0,0.,4.8,7.,4.8,1.,4.8,2.,4.8
1979-07-04 15:00:34.290 ,1,0,0.,4.8,8.,4.8,2.,4.8,0.,4.8
1979-07-04 15:00:39.090 ,1,0,0.,4.8,7.,4.8,2.,4.8,0.,4.8
1979-07-04 15:00:43.890 ,1,0,0.,4.8,4.,4.8,2.,4.8,0.,4.8
1979-07-04 15:00:48.690 ,2,0,0.,4.8,10.,4.8,2.,4.8,1.,4.8
1979-07-04 15:00:53.490 ,2,0,0.,4.8,4.,4.8,1.,4.8,1.,4.8
1979-07-04 15:00:58.290 ,2,0,0.,4.8,6.,4.8,0.,4.8,0.,4.8
1979-07-04 15:01:03.090 ,2,0,0.,4.8,7.,4.8,1.,4.8,0.,4.8
1979-07-04 15:01:07.890 ,2,0,0.,4.8,7.,4.8,0.,4.8,0.,4.8
1979-07-04 15:01:12.690 ,2,0,0.,4.8,7.,4.8,0.,4.8,0.,4.8
1979-07-04 15:01:17.490 ,2,0,0.,4.8,7.,4.8,1.,4.8,2.,4.8
1979-07-04 15:01:22.290 ,2,0,0.,4.8,6.,4.8,2.,4.8,0.,4.8
1979-07-04 15:01:27.090 ,2,0,0.,4.8,5.,4.8,1.,4.8,1.,4.8
1979-07-04 15:01:31.890 ,2,0,0.,4.8,9.,4.8,0.,4.8,0.,4.8
1979-07-04 15:01:36.690 ,3,0,0.,4.8,10.,4.8,0.,4.8,0.,4.8
1979-07-04 15:01:41.490 ,3,0,0.,4.8,11.,4.8,2.,4.8,0.,4.8
1979-07-04 15:01:46.290 ,3,0,0.,4.8,6.,4.8,0.,4.8,1.,4.8
1979-07-04 15:01:51.090 ,3,0,0.,4.8,8.,4.8,2.,4.8,0.,4.8
1979-07-04 15:01:55.890 ,3,0,0.,4.8,6.,4.8,1.,4.8,1.,4.8
1979-07-04 15:02:00.690 ,3,0,0.,4.8,8.,4.8,1.,4.8,0.,4.8
1979-07-04 15:02:05.490 ,3,0,0.,4.8,12.,4.8,0.,4.8,0.,4.8
1979-07-04 15:02:10.290 ,3,0,0.,4.8,6.,4.8,2.,4.8,1.,4.8
1979-07-04 15:02:15.090 ,3,0,0.,4.8,5.,4.8,1.,4.8,0.,4.8
1979-07-04 15:02:19.890 ,3,0,0.,4.8,5.,4.8,2.,4.8,0.,4.8
1979-07-04 15:02:24.690 ,4,0,0.,4.8,6.,4.8,1.,4.8,1.,4.8
1979-07-04 15:02:29.490 ,4,0,0.,4.8,16.,4.8,2.,4.8,0.,4.8
1979-07-04 15:02:34.290 ,4,0,0.,4.8,15.,4.8,4.,4.8,0.,4.8
1979-07-04 15:02:39.090 ,4,0,2.,4.8,8.,4.8,4.,4.8,0.,4.8
1979-07-04 15:02:43.890 ,4,0,0.,4.8,14.,4.8,2.,4.8,1.,4.8
1979-07-04 15:02:48.690 ,4,0,0.,4.8,8.,4.8,5.,4.8,0.,4.8
1979-07-04 15:02:53.490 ,4,0,0.,4.8,12.,4.8,0.,4.8,1.,4.8
1979-07-04 15:02:58.290 ,4,0,0.,4.8,9.,4.8,5.,4.8,0.,4.8
1979-07-04 15:03:03.090 ,4,0,0.,4.8,17.,4.8,4.,4.8,0.,4.8
1979-07-04 15:03:07.890 ,4,0,0.,4.8,11.,4.8,7.,4.8,0.,4.8
1979-07-04 15:03:12.690 ,5,0,0.,4.8,10.,4.8,2.,4.8,0.,4.8
1979-07-04 15:03:17.490 ,5,0,0.,4.8,14.,4.8,2.,4.8,0.,4.8
1979-07-04 15:03:22.290 ,5,0,0.,4.8,3.,4.8,1.,4.8,0.,4.8
1979-07-04 15:03:27.090 ,5,0,0.,4.8,8.,4.8,1.,4.8,0.,4.8
1979-07-04 15:03:31.890 ,5,0,0.,4.8,9.,4.8,2.,4.8,0.,4.8
1979-07-04 15:03:36.690 ,5,0,0.,4.8,5.,4.8,2.,4.8,0.,4.8
1979-07-04 15:03:41.490 ,5,0,0.,4.8,2.,4.8,0.,4.8,0.,4.8
1979-07-04 15:03:46.290 ,5,0,0.,4.8,3.,4.8,1.,4.8,1.,4.8
1979-07-04 15:03:51.090 ,5,0,0.,4.8,7.,4.8,1.,4.8,1.,4.8
1979-07-04 15:03:55.890 ,5,0,0.,4.8,5.,4.8,1.,4.8,0.,4.8
1979-07-04 15:04:00.690 ,6,0,0.,4.8,5.,4.8,3.,4.8,0.,4.8
1979-07-04 15:04:05.490 ,6,0,0.,4.8,4.,4.8,1.,4.8,1.,4.8
1979-07-04 15:04:10.290 ,6,0,0.,4.8,3.,4.8,1.,4.8,0.,4.8
1979-07-04 15:04:15.090 ,6,0,0.,4.8,1.,4.8,1.,4.8,0.,4.8
1979-07-04 15:04:19.890 ,6,0,0.,4.8,4.,4.8,1.,4.8,0.,4.8
1979-07-04 15:04:24.690 ,6,0,0.,4.8,4.,4.8,1.,4.8,0.,4.8
1979-07-04 15:04:29.490 ,6,0,0.,4.8,2.,4.8,0.,4.8,0.,4.8
1979-07-04 15:04:34.290 ,6,0,0.,4.8,5.,4.8,0.,4.8,1.,4.8
1979-07-04 15:04:39.090 ,6,0,0.,4.8,5.,4.8,0.,4.8,0.,4.8
1979-07-04 15:04:43.890 ,6,0,0.,4.8,6.,4.8,2.,4.8,1.,4.8
1979-07-04 15:04:48.690 ,7,0,0.,4.8,3.,4.8,0.,4.8,1.,4.8
1979-07-04 15:04:53.490 ,7,0,1.,4.8,2.,4.8,0.,4.8,0.,4.8
1979-07-04 15:04:58.290 ,7,0,0.,4.8,1.,4.8,1.,4.8,0.,4.8
1979-07-04 15:05:03.090 ,7,0,0.,4.8,0.,4.8,0.,4.8,1.,4.8
1979-07-04 15:05:07.890 ,7,0,0.,4.8,2.,4.8,0.,4.8,0.,4.8
1979-07-04 15:05:12.690 ,7,0,0.,4.8,0.,4.8,0.,4.8,0.,4.8
1979-07-04 15:05:17.490 ,7,0,0.,4.8,0.,4.8,0.,4.8,0.,4.8
1979-07-04 15:05:22.290 ,7,0,0.,4.8,2.,4.8,1.,4.8,0.,4.8
1979-07-04 15:05:27.090 ,7,0,0.,4.8,0.,4.8,0.,4.8,0.,4.8
1979-07-04 15:05:31.890 ,7,0,0.,4.8,1.,4.8,0.,4.8,0.,4.8
1979-07-04 15:05:36.690 ,7,0,0.,4.8,0.,4.8,0.,4.8,1.,4.8
1979-07-04 15:05:41.490 ,7,0,0.,4.8,0.,4.8,0.,4.8,0.,4.8
1979-07-04 15:05:46.290 ,7,0,0.,4.8,2.,4.8,0.,4.8,0.,4.8
1979-07-04 15:05:51.090 ,7,0,0.,4.8,2.,4.8,0.,4.8,0.,4.8
1979-07-04 15:05:55.890 ,7,0,0.,4.8,0.,4.8,0.,4.8,0.,4.8
1979-07-04 15:06:00.690 ,7,0,0.,4.8,0.,4.8,0.,4.8,0.,4.8
1979-07-04 15:06:05.490 ,7,0,0.,4.8,1.,4.8,0.,4.8,0.,4.8
1979-07-04 15:06:10.290 ,7,0,0.,4.8,0.,4.8,0.,4.8,0.,4.8
1979-07-04 15:06:15.090 ,7,0,0.,4.8,0.,4.8,0.,4.8,0.,4.8
1979-07-04 15:06:19.890 ,7,0,0.,4.8,0.,4.8,0.,4.8,0.,4.8
1979-07-04 15:06:24.690 ,6,0,0.,4.8,0.,4.8,0.,4.8,0.,4.8
1979-07-04 15:06:29.490 ,6,0,0.,4.8,0.,4.8,0.,4.8,0.,4.8
1979-07-04 15:06:34.290 ,6,0,0.,4.8,5.,4.8,0.,4.8,2.,4.8
1979-07-04 15:06:39.090 ,6,0,0.,4.8,1.,4.8,0.,4.8,0.,4.8
1979-07-04 15:06:43.890 ,6,0,0.,4.8,5.,4.8,6.,4.8,0.,4.8
1979-07-04 15:06:48.690 ,6,0,0.,4.8,4.,4.8,0.,4.8,0.,4.8
1979-07-04 15:06:53.490 ,6,0,0.,4.8,7.,4.8,1.,4.8,0.,4.8
1979-07-04 15:06:58.290 ,6,0,1.,4.8,5.,4.8,3.,4.8,0.,4.8
1979-07-04 15:07:03.090 ,6,0,0.,4.8,5.,4.8,1.,4.8,1.,4.8
1979-07-04 15:07:07.890 ,6,0,0.,4.8,2.,4.8,2.,4.8,3.,4.8
1979-07-04 15:07:12.690 ,5,0,0.,4.8,4.,4.8,0.,4.8,0.,4.8
1979-07-04 15:07:17.490 ,5,0,0.,4.8,4.,4.8,2.,4.8,1.,4.8
1979-07-04 15:07:22.290 ,5,0,0.,4.8,11.,4.8,1.,4.8,0.,4.8
1979-07-04 15:07:27.090 ,5,0,0.,4.8,4.,4.8,1.,4.8,2.,4.8
1979-07-04 15:07:31.890 ,5,0,0.,4.8,9.,4.8,2.,4.8,0.,4.8
1979-07-04 15:07:36.690 ,5,0,0.,4.8,6.,4.8,1.,4.8,1.,4.8
1979-07-04 15:07:41.490 ,5,0,0.,4.8,8.,4.8,2.,4.8,0.,4.8
1979-07-04 15:07:46.290 ,5,0,0.,4.8,7.,4.8,1.,4.8,2.,4.8
1979-07-04 15:07:51.090 ,5,0,0.,4.8,13.,4.8,0.,4.8,0.,4.8
1979-07-04 15:07:55.890 ,5,0,0.,4.8,5.,4.8,1.,4.8,0.,4.8
1979-07-04 15:08:00.690 ,4,0,0.,4.8,7.,4.8,2.,4.8,0.,4.8
1979-07-04 15:08:05.490 ,4,0,0.,4.8,8.,4.8,0.,4.8,2.,4.8
1979-07-04 15:08:10.290 ,4,0,0.,4.8,14.,4.8,3.,4.8,2.,4.8
1979-07-04 15:08:15.090 ,4,0,0.,4.8,12.,4.8,1.,4.8,2.,4.8
1979-07-04 15:08:19.890 ,4,0,0.,4.8,12.,4.8,5.,4.8,2.,4.8
1979-07-04 15:08:24.690 ,4,0,0.,4.8,11.,4.8,2.,4.8,2.,4.8
1979-07-04 15:08:29.490 ,4,0,0.,4.8,18.,4.8,1.,4.8,0.,4.8
1979-07-04 15:08:34.290 ,4,0,0.,4.8,13.,4.8,3.,4.8,3.,4.8
1979-07-04 15:08:39.090 ,4,0,0.,4.8,15.,4.8,6.,4.8,0.,4.8
1979-07-04 15:08:43.890 ,4,0,0.,4.8,17.,4.8,5.,4.8,0.,4.8
1979-07-04 15:08:48.690 ,3,0,0.,4.8,19.,4.8,6.,4.8,0.,4.8
1979-07-04 15:08:53.490 ,3,0,0.,4.8,10.,4.8,1.,4.8,1.,4.8
1979-07-04 15:08:58.290 ,3,0,0.,4.8,7.,4.8,2.,4.8,0.,4.8
1979-07-04 15:09:03.090 ,3,0,0.,4.8,7.,4.8,3.,4.8,1.,4.8
1979-07-04 15:09:07.890 ,3,0,0.,4.8,10.,4.8,2.,4.8,0.,4.8
1979-07-04 15:09:12.690 ,3,0,0.,4.8,6.,4.8,2.,4.8,1.,4.8
1979-07-04 15:09:17.490 ,3,0,0.,4.8,12.,4.8,1.,4.8,0.,4.8
1979-07-04 15:09:22.290 ,3,0,0.,4.8,2.,4.8,2.,4.8,0.,4.8
1979-07-04 15:09:27.090 ,3,0,0.,4.8,2.,4.8,1.,4.8,0.,4.8
1979-07-04 15:09:31.890 ,3,0,0.,4.8,11.,4.8,4.,4.8,1.,4.8
1979-07-04 15:09:36.690 ,2,0,0.,4.8,5.,4.8,1.,4.8,1.,4.8
1979-07-04 15:09:41.490 ,2,0,0.,4.8,8.,4.8,3.,4.8,0.,4.8
1979-07-04 15:09:46.290 ,2,0,0.,4.8,8.,4.8,3.,4.8,1.,4.8
1979-07-04 15:09:51.090 ,2,0,0.,4.8,8.,4.8,0.,4.8,0.,4.8
1979-07-04 15:09:55.890 ,2,0,0.,4.8,5.,4.8,0.,4.8,0.,4.8
1979-07-04 15:10:00.690 ,2,0,0.,4.8,7.,4.8,1.,4.8,1.,4.8
1979-07-04 15:10:05.490 ,2,0,0.,4.8,7.,4.8,3.,4.8,0.,4.8
1979-07-04 15:10:10.290 ,2,0,0.,4.8,11.,4.8,1.,4.8,0.,4.8
1979-07-04 15:10:15.090 ,2,0,0.,4.8,5.,4.8,2.,4.8,1.,4.8
1979-07-04 15:10:19.890 ,2,0,0.,4.8,6.,4.8,1.,4.8,0.,4.8
1979-07-04 15:10:24.690 ,1,0,0.,4.8,12.,4.8,2.,4.8,0.,4.8
1979-07-04 15:10:29.490 ,1,0,0.,4.8,13.,4.8,1.,4.8,1.,4.8
1979-07-04 15:10:34.290 ,1,0,0.,4.8,7.,4.8,0.,4.8,1.,4.8
1979-07-04 15:10:39.090 ,1,0,0.,4.8,9.,4.8,0.,4.8,0.,4.8
1979-07-04 15:10:43.890 ,1,0,0.,4.8,11.,4.8,2.,4.8,1.,4.8
1979-07-04 15:10:48.690 ,1,0,0.,4.8,4.,4.8,0.,4.8,0.,4.8
1979-07-04 15:10:53.490 ,1,0,0.,4.8,11.,4.8,0.,4.8,1.,4.8
1979-07-04 15:10:58.290 ,1,0,0.,4.8,7.,4.8,1.,4.8,0.,4.8
1979-07-04 15:11:03.090 ,1,0,0.,4.8,13.,4.8,1.,4.8,2.,4.8
1979-07-04 15:11:07.890 ,1,0,0.,4.8,6.,4.8,2.,4.8,2.,4.8
1979-07-04 15:11:12.690 ,0,0,0.,4.8,6.,4.8,0.,4.8,1.,4.8
1979-07-04 15:11:17.490 ,0,0,0.,4.8,11.,4.8,2.,4.8,0.,4.8
1979-07-04 15:11:22.290 ,0,0,0.,4.8,10.,4.8,0.,4.8,1.,4.8
1979-07-04 15:11:27.090 ,0,0,0.,4.8,9.,4.8,1.,4.8,0.,4.8
1979-07-04 15:11:31.890 ,0,0,0.,4.8,11.,4.8,1.,4.8,0.,4.8
1979-07-04 15:11:36.690 ,0,0,0.,4.8,12.,4.8,1.,4.8,0.,4.8
1979-07-04 15:11:41.490 ,0,0,0.,4.8,13.,4.8,1.,4.8,0.,4.8
1979-07-04 15:11:46.290 ,0,0,0.,4.8,5.,4.8,1.,4.8,0.,4.8
1979-07-04 15:11:51.090 ,0,0,0.,4.8,11.,4.8,2.,4.8,0.,4.8
1979-07-04 15:11:55.890 ,0,0,0.,4.8,14.,4.8,4.,4.8,0.,4.8
1979-07-04 15:12:00.690 ,0,0,0.,4.8,10.,4.8,0.,4.8,1.,4.8
1979-07-04 15:12:05.490 ,0,0,0.,4.8,13.,4.8,0.,4.8,1.,4.8
1979-07-04 15:12:10.290 ,0,0,0.,4.8,10.,4.8,0.,4.8,0.,4.8
1979-07-04 15:12:15.090 ,0,0,0.,4.8,13.,4.8,3.,4.8,1.,4.8
1979-07-04 15:12:19.890 ,0,0,0.,4.8,11.,4.8,1.,4.8,0.,4.8
1979-07-04 15:12:24.690 ,0,0,0.,4.8,11.,4.8,5.,4.8,1.,4.8
1979-07-04 15:12:29.490 ,0,0,0.,4.8,14.,4.8,2.,4.8,0.,4.8
1979-07-04 15:12:34.290 ,0,0,0.,4.8,6.,4.8,0.,4.8,1.,4.8
1979-07-04 15:12:39.090 ,0,0,0.,4.8,10.,4.8,0.,4.8,1.,4.8
1979-07-04 15:12:43.890 ,0,0,0.,4.8,13.,4.8,1.,4.8,0.,4.8
1979-07-04 15:12:48.690 ,1,0,0.,4.8,14.,4.8,2.,4.8,1.,4.8
1979-07-04 15:12:53.490 ,1,0,0.,4.8,9.,4.8,3.,4.8,0.,4.8
1979-07-04 15:12:58.290 ,1,0,0.,4.8,9.,4.8,1.,4.8,0.,4.8
1979-07-04 15:13:03.090 ,1,0,0.,4.8,8.,4.8,1.,4.8,0.,4.8
1979-07-04 15:13:07.890 ,1,0,0.,4.8,16.,4.8,1.,4.8,2.,4.8
1979-07-04 15:13:12.690 ,1,0,0.,4.8,15.,4.8,1.,4.8,1.,4.8
1979-07-04 15:13:17.490 ,1,0,0.,4.8,11.,4.8,0.,4.8,1.,4.8
1979-07-04 15:13:22.290 ,1,0,0.,4.8,8.,4.8,1.,4.8,0.,4.8
1979-07-04 15:13:27.090 ,1,0,0.,4.8,10.,4.8,0.,4.8,1.,4.8
1979-07-04 15:13:31.890 ,1,0,0.,4.8,11.,4.8,4.,4.8,1.,4.8
1979-07-04 15:13:36.690 ,2,0,0.,4.8,9.,4.8,1.,4.8,1.,4.8
1979-07-04 15:13:41.490 ,2,0,0.,4.8,7.,4.8,0.,4.8,1.,4.8
1979-07-04 15:13:46.290 ,2,0,0.,4.8,4.,4.8,0.,4.8,1.,4.8
1979-07-04 15:13:51.090 ,2,0,0.,4.8,4.,4.8,0.,4.8,1.,4.8
1979-07-04 15:13:55.890 ,2,0,0.,4.8,15.,4.8,2.,4.8,0.,4.8
1979-07-04 15:14:00.690 ,2,0,0.,4.8,11.,4.8,0.,4.8,0.,4.8
1979-07-04 15:14:05.490 ,2,0,0.,4.8,10.,4.8,1.,4.8,1.,4.8
1979-07-04 15:14:10.290 ,2,0,0.,4.8,5.,4.8,0.,4.8,0.,4.8
1979-07-04 15:14:15.090 ,2,0,0.,4.8,11.,4.8,1.,4.8,0.,4.8
1979-07-04 15:14:19.890 ,2,0,0.,4.8,18.,4.8,1.,4.8,1.,4.8
1979-07-04 15:14:24.690 ,3,0,0.,4.8,12.,4.8,1.,4.8,0.,4.8
1979-07-04 15:14:29.490 ,3,0,0.,4.8,7.,4.8,3.,4.8,0.,4.8
1979-07-04 15:14:34.290 ,3,0,0.,4.8,10.,4.8,2.,4.8,1.,4.8
1979-07-04 15:14:39.090 ,3,0,0.,4.8,8.,4.8,1.,4.8,0.,4.8
1979-07-04 15:14:43.890 ,3,0,0.,4.8,6.,4.8,2.,4.8,0.,4.8
1979-07-04 15:14:48.690 ,3,0,0.,4.8,9.,4.8,1.,4.8,0.,4.8
1979-07-04 15:14:53.490 ,3,0,0.,4.8,14.,4.8,2.,4.8,1.,4.8
1979-07-04 15:14:58.290 ,3,0,0.,4.8,11.,4.8,3.,4.8,0.,4.8
1979-07-04 15:15:03.090 ,3,0,0.,4.8,19.,4.8,4.,4.8,1.,4.8
1979-07-04 15:15:07.890 ,3,0,0.,4.8,14.,4.8,0.,4.8,1.,4.8
1979-07-04 15:15:12.690 ,4,0,0.,4.8,12.,4.8,4.,4.8,1.,4.8
1979-07-04 15:15:17.490 ,4,0,0.,4.8,5.,4.8,0.,4.8,0.,4.8
1979-07-04 15:15:22.290 ,4,0,0.,4.8,7.,4.8,5.,4.8,1.,4.8
1979-07-04 15:15:27.090 ,4,0,1.,4.8,17.,4.8,1.,4.8,4.,4.8
1979-07-04 15:15:31.890 ,4,0,0.,4.8,27.,4.8,4.,4.8,2.,4.8
1979-07-04 15:15:36.690 ,4,0,0.,4.8,10.,4.8,5.,4.8,3.,4.8
1979-07-04 15:15:41.490 ,4,0,0.,4.8,7.,4.8,1.,4.8,0.,4.8
1979-07-04 15:15:46.290 ,4,0,0.,4.8,9.,4.8,6.,4.8,3.,4.8
1979-07-04 15:15:51.090 ,4,0,0.,4.8,15.,4.8,4.,4.8,1.,4.8
1979-07-04 15:15:55.890 ,4,0,0.,4.8,11.,4.8,3.,4.8,1.,4.8
1979-07-04 15:16:00.690 ,5,0,0.,4.8,8.,4.8,3.,4.8,0.,4.8
1979-07-04 15:16:05.490 ,5,0,0.,4.8,9.,4.8,3.,4.8,0.,4.8
1979-07-04 15:16:10.290 ,5,0,0.,4.8,2.,4.8,1.,4.8,2.,4.8
1979-07-04 15:16:15.090 ,5,0,1.,4.8,3.,4.8,1.,4.8,0.,4.8
1979-07-04 15:16:19.890 ,5,0,0.,4.8,5.,4.8,3.,4.8,0.,4.8
1979-07-04 15:16:24.690 ,5,0,0.,4.8,4.,4.8,0.,4.8,1.,4.8
1979-07-04 15:16:29.490 ,5,0,0.,4.8,3.,4.8,4.,4.8,1.,4.8
1979-07-04 15:16:34.290 ,5,0,0.,4.8,7.,4.8,0.,4.8,2.,4.8
1979-07-04 15:16:39.090 ,5,0,0.,4.8,5.,4.8,0.,4.8,2.,4.8
1979-07-04 15:16:43.890 ,5,0,0.,4.8,6.,4.8,0.,4.8,0.,4.8
1979-07-04 15:16:48.690 ,6,0,0.,4.8,5.,4.8,4.,4.8,1.,4.8
1979-07-04 15:16:53.490 ,6,0,0.,4.8,5.,4.8,0.,4.8,1.,4.8
1979-07-04 15:16:58.290 ,6,0,0.,4.8,3.,4.8,2.,4.8,2.,4.8
1979-07-04 15:17:03.090 ,6,0,0.,4.8,5.,4.8,0.,4.8,0.,4.8
1979-07-04 15:17:07.890 ,6,0,0.,4.8,5.,4.8,1.,4.8,0.,4.8
1979-07-04 15:17:12.690 ,6,0,0.,4.8,11.,4.8,2.,4.8,0.,4.8
1979-07-04 15:17:17.490 ,6,0,0.,4.8,7.,4.8,0.,4.8,2.,4.8
1979-07-04 15:17:22.290 ,6,0,0.,4.8,8.,4.8,1.,4.8,0.,4.8
1979-07-04 15:17:27.090 ,6,0,0.,4.8,4.,4.8,0.,4.8,1.,4.8
1979-07-04 15:17:31.890 ,6,0,0.,4.8,6.,4.8,0.,4.8,1.,4.8
1979-07-04 15:17:36.690 ,7,0,1.,4.8,5.,4.8,0.,4.8,3.,4.8
1979-07-04 15:17:41.490 ,7,0,0.,4.8,9.,4.8,0.,4.8,0.,4.8
1979-07-04 15:17:46.290 ,7,0,0.,4.8,0.,4.8,0.,4.8,0.,4.8
1979-07-04 15:17:51.090 ,7,0,0.,4.8,1.,4.8,0.,4.8,0.,4.8
1979-07-04 15:17:55.890 ,7,0,0.,4.8,0.,4.8,0.,4.8,0.,4.8
1979-07-04 15:18:00.690 ,7,0,0.,4.8,0.,4.8,0.,4.8,0.,4.8
1979-07-04 15:18:05.490 ,7,0,0.,4.8,1.,4.8,0.,4.8,0.,4.8
1979-07-04 15:18:10.290 ,7,0,0.,4.8,1.,4.8,0.,4.8,0.,4.8
1979-07-04 15:18:15.090 ,7,0,0.,4.8,1.,4.8,0.,4.8,0.,4.8
1979-07-04 15:18:19.890 ,7,0,0.,4.8,1.,4.8,0.,4.8,0.,4.8
1979-07-04 15:18:24.690 ,7,0,0.,4.8,0.,4.8,0.,4.8,0.,4.8
1979-07-04 15:18:29.490 ,7,0,0.,4.8,0.,4.8,0.,4.8,0.,4.8
1979-07-04 15:18:34.290 ,7,0,0.,4.8,2.,4.8,0.,4.8,0.,4.8
1979-07-04 15:18:39.090 ,7,0,0.,4.8,1.,4.8,0.,4.8,1.,4.8
1979-07-04 15:18:43.890 ,7,0,0.,4.8,1.,4.8,0.,4.8,0.,4.8
1979-07-04 15:18:48.690 ,7,0,0.,4.8,0.,4.8,0.,4.8,0.,4.8
1979-07-04 15:18:53.490 ,7,0,0.,4.8,1.,4.8,0.,4.8,0.,4.8
1979-07-04 15:18:58.290 ,7,0,0.,4.8,0.,4.8,1.,4.8,0.,4.8
1979-07-04 15:19:03.090 ,7,0,0.,4.8,0.,4.8,0.,4.8,0.,4.8
1979-07-04 15:19:07.890 ,7,0,0.,4.8,2.,4.8,0.,4.8,0.,4.8
1979-07-04 15:19:12.690 ,6,0,0.,4.8,0.,4.8,0.,4.8,0.,4.8
1979-07-04 15:19:17.490 ,6,0,0.,4.8,1.,4.8,0.,4.8,1.,4.8
1979-07-04 15:19:22.290 ,6,0,0.,4.8,4.,4.8,1.,4.8,0.,4.8
1979-07-04 15:19:27.090 ,6,0,0.,4.8,4.,4.8,1.,4.8,0.,4.8
1979-07-04 15:19:31.890 ,6,0,0.,4.8,9.,4.8,2.,4.8,1.,4.8
1979-07-04 15:19:36.690 ,6,0,0.,4.8,2.,4.8,1.,4.8,0.,4.8
1979-07-04 15:19:41.490 ,6,0,1.,4.8,4.,4.8,1.,4.8,4.,4.8
1979-07-04 15:19:46.290 ,6,0,0.,4.8,4.,4.8,0.,4.8,0.,4.8
1979-07-04 15:19:51.090 ,6,0,0.,4.8,9.,4.8,2.,4.8,1.,4.8
1979-07-04 15:19:55.890 ,6,0,0.,4.8,5.,4.8,2.,4.8,0.,4.8
1979-07-04 15:20:00.690 ,5,0,0.,4.8,5.,4.8,1.,4.8,0.,4.8
1979-07-04 15:20:05.490 ,5,0,0.,4.8,5.,4.8,2.,4.8,2.,4.8
1979-07-04 15:20:10.290 ,5,0,0.,4.8,4.,4.8,1.,4.8,0.,4.8
1979-07-04 15:20:15.090 ,5,0,0.,4.8,6.,4.8,1.,4.8,0.,4.8
1979-07-04 15:20:19.890 ,5,0,0.,4.8,4.,4.8,3.,4.8,0.,4.8
1979-07-04 15:20:24.690 ,5,0,0.,4.8,9.,4.8,2.,4.8,1.,4.8
1979-07-04 15:20:29.490 ,5,0,0.,4.8,4.,4.8,0.,4.8,4.,4.8
1979-07-04 15:20:34.290 ,5,0,0.,4.8,5.,4.8,0.,4.8,0.,4.8
1979-07-04 15:20:39.090 ,5,0,0.,4.8,4.,4.8,2.,4.8,0.,4.8
1979-07-04 15:20:43.890 ,5,0,1.,4.8,8.,4.8,2.,4.8,0.,4.8
1979-07-04 15:20:48.690 ,4,0,0.,4.8,9.,4.8,1.,4.8,1.,4.8
1979-07-04 15:20:53.490 ,4,0,0.,4.8,9.,4.8,1.,4.8,0.,4.8
1979-07-04 15:20:58.290 ,4,0,0.,4.8,16.,4.8,6.,4.8,0.,4.8
1979-07-04 15:21:03.090 ,4,0,0.,4.8,13.,4.8,3.,4.8,0.,4.8
1979-07-04 15:21:07.890 ,4,0,0.,4.8,11.,4.8,3.,4.8,0.,4.8
1979-07-04 15:21:12.690 ,4,0,0.,4.8,18.,4.8,3.,4.8,0.,4.8
1979-07-04 15:21:17.490 ,4,0,0.,4.8,16.,4.8,4.,4.8,0.,4.8
1979-07-04 15:21:22.290 ,4,0,0.,4.8,13.,4.8,3.,4.8,2.,4.8
1979-07-04 15:21:27.090 ,4,0,0.,4.8,8.,4.8,2.,4.8,1.,4.8
1979-07-04 15:21:31.890 ,4,0,0.,4.8,21.,4.8,4.,4.8,0.,4.8
1979-07-04 15:21:36.690 ,3,0,0.,4.8,18.,4.8,5.,4.8,2.,4.8
1979-07-04 15:21:41.490 ,3,0,0.,4.8,25.,4.8,6.,4.8,1.,4.8
1979-07-04 15:21:46.290 ,3,0,0.,4.8,7.,4.8,0.,4.8,0.,4.8
1979-07-04 15:21:51.090 ,3,0,1.,4.8,9.,4.8,0.,4.8,0.,4.8
1979-07-04 15:21:55.890 ,3,0,0.,4.8,13.,4.8,3.,4.8,0.,4.8
1979-07-04 15:22:00.690 ,3,0,0.,4.8,3.,4.8,0.,4.8,0.,4.8
1979-07-04 15:22:05.490 ,3,0,0.,4.8,4.,4.8,2.,4.8,0.,4.8
1979-07-04 15:22:10.290 ,3,0,0.,4.8,9.,4.8,5.,4.8,0.,4.8
1979-07-04 15:22:15.090 ,3,0,0.,4.8,10.,4.8,0.,4.8,0.,4.8
1979-07-04 15:22:19.890 ,3,0,0.,4.8,9.,4.8,2.,4.8,1.,4.8
1979-07-04 15:22:24.690 ,2,0,0.,4.8,11.,4.8,2.,4.8,1.,4.8
1979-07-04 15:22:29.490 ,2,0,0.,4.8,4.,4.8,4.,4.8,0.,4.8
1979-07-04 15:22:34.290 ,2,0,0.,4.8,13.,4.8,1.,4.8,0.,4.8
1979-07-04 15:22:39.090 ,2,0,0.,4.8,10.,4.8,1.,4.8,0.,4.8
1979-07-04 15:22:43.890 ,2,0,0.,4.8,11.,4.8,0.,4.8,0.,4.8
1979-07-04 15:22:48.690 ,2,0,0.,4.8,13.,4.8,0.,4.8,0.,4.8
1979-07-04 15:22:53.490 ,2,0,0.,4.8,12.,4.8,2.,4.8,0.,4.8
1979-07-04 15:22:58.290 ,2,0,0.,4.8,9.,4.8,1.,4.8,0.,4.8
1979-07-04 15:23:03.090 ,2,0,0.,4.8,6.,4.8,2.,4.8,0.,4.8
1979-07-04 15:23:07.890 ,2,0,0.,4.8,3.,4.8,1.,4.8,0.,4.8
1979-07-04 15:23:12.690 ,1,0,0.,4.8,6.,4.8,1.,4.8,0.,4.8
1979-07-04 15:23:17.490 ,1,0,0.,4.8,7.,4.8,2.,4.8,0.,4.8
1979-07-04 15:23:22.290 ,1,0,0.,4.8,17.,4.8,1.,4.8,0.,4.8
1979-07-04 15:23:27.090 ,1,0,0.,4.8,13.,4.8,2.,4.8,1.,4.8
1979-07-04 15:23:31.890 ,1,0,0.,4.8,15.,4.8,2.,4.8,0.,4.8
1979-07-04 15:23:36.690 ,1,0,0.,4.8,15.,4.8,1.,4.8,0.,4.8
1979-07-04 15:23:41.490 ,1,0,0.,4.8,22.,4.8,0.,4.8,0.,4.8
1979-07-04 15:23:46.290 ,1,0,0.,4.8,19.,4.8,2.,4.8,1.,4.8
1979-07-04 15:23:51.090 ,1,0,0.,4.8,23.,4.8,1.,4.8,1.,4.8
1979-07-04 15:23:55.890 ,1,0,0.,4.8,12.,4.8,0.,4.8,2.,4.8
1979-07-04 15:24:00.690 ,0,0,0.,4.8,21.,4.8,2.,4.8,1.,4.8
1979-07-04 15:24:05.490 ,0,0,0.,4.8,16.,4.8,1.,4.8,0.,4.8
1979-07-04 15:24:10.290 ,0,0,0.,4.8,12.,4.8,1.,4.8,1.,4.8
1979-07-04 15:24:15.090 ,0,0,0.,4.8,13.,4.8,1.,4.8,1.,4.8
1979-07-04 15:24:19.890 ,0,0,0.,4.8,4.,4.8,4.,4.8,1.,4.8
1979-07-04 15:24:24.690 ,0,0,0.,4.8,12.,4.8,2.,4.8,0.,4.8
1979-07-04 15:24:29.490 ,0,0,0.,4.8,10.,4.8,1.,4.8,1.,4.8
1979-07-04 15:24:34.290 ,0,0,0.,4.8,8.,4.8,0.,4.8,0.,4.8
1979-07-04 15:24:39.090 ,0,0,0.,4.8,21.,4.8,1.,4.8,0.,4.8
1979-07-04 15:24:43.890 ,0,0,0.,4.8,15.,4.8,1.,4.8,0.,4.8
1979-07-04 15:24:48.690 ,0,0,0.,4.8,20.,4.8,5.,4.8,0.,4.8
1979-07-04 15:24:53.490 ,0,0,0.,4.8,7.,4.8,2.,4.8,0.,4.8
1979-07-04 15:24:58.290 ,0,0,0.,4.8,17.,4.8,1.,4.8,0.,4.8
1979-07-04 15:25:03.090 ,0,0,0.,4.8,9.,4.8,2.,4.8,0.,4.8
1979-07-04 15:25:07.890 ,0,0,0.,4.8,11.,4.8,1.,4.8,2.,4.8
1979-07-04 15:25:12.690 ,0,0,0.,4.8,15.,4.8,0.,4.8,1.,4.8
1979-07-04 15:25:17.490 ,0,0,0.,4.8,15.,4.8,2.,4.8,0.,4.8
1979-07-04 15:25:22.290 ,0,0,0.,4.8,15.,4.8,2.,4.8,0.,4.8
1979-07-04 15:25:27.090 ,0,0,0.,4.8,12.,4.8,1.,4.8,1.,4.8
1979-07-04 15:25:31.890 ,0,0,0.,4.8,17.,4.8,1.,4.8,0.,4.8
1979-07-04 15:25:36.690 ,1,0,0.,4.8,7.,4.8,2.,4.8,0.,4.8
1979-07-04 15:25:41.490 ,1,0,0.,4.8,19.,4.8,1.,4.8,0.,4.8
1979-07-04 15:25:46.290 ,1,0,0.,4.8,23.,4.8,1.,4.8,0.,4.8
1979-07-04 15:25:51.090 ,1,0,0.,4.8,16.,4.8,2.,4.8,0.,4.8
1979-07-04 15:25:55.890 ,1,0,0.,4.8,18.,4.8,0.,4.8,1.,4.8
1979-07-04 15:26:00.690 ,1,0,0.,4.8,12.,4.8,1.,4.8,0.,4.8
1979-07-04 15:26:05.490 ,1,0,0.,4.8,20.,4.8,1.,4.8,1.,4.8
1979-07-04 15:26:10.290 ,1,0,0.,4.8,17.,4.8,1.,4.8,0.,4.8
1979-07-04 15:26:15.090 ,1,0,0.,4.8,14.,4.8,2.,4.8,0.,4.8
1979-07-04 15:26:19.890 ,1,0,0.,4.8,14.,4.8,1.,4.8,0.,4.8
1979-07-04 15:26:24.690 ,2,0,0.,4.8,20.,4.8,2.,4.8,1.,4.8
1979-07-04 15:26:29.490 ,2,0,0.,4.8,14.,4.8,1.,4.8,1.,4.8
1979-07-04 15:26:34.290 ,2,0,0.,4.8,7.,4.8,1.,4.8,0.,4.8
1979-07-04 15:26:39.090 ,2,0,0.,4.8,10.,4.8,2.,4.8,1.,4.8
1979-07-04 15:26:43.890 ,2,0,0.,4.8,18.,4.8,0.,4.8,1.,4.8
1979-07-04 15:26:48.690 ,2,0,0.,4.8,14.,4.8,1.,4.8,2.,4.8
1979-07-04 15:26:53.490 ,2,0,0.,4.8,12.,4.8,2.,4.8,0.,4.8
1979-07-04 15:26:58.290 ,2,0,0.,4.8,12.,4.8,1.,4.8,0.,4.8
1979-07-04 15:27:03.090 ,2,0,0.,4.8,19.,4.8,2.,4.8,0.,4.8
1979-07-04 15:27:07.890 ,2,0,0.,4.8,20.,4.8,3.,4.8,0.,4.8
1979-07-04 15:27:12.690 ,3,0,0.,4.8,10.,4.8,3.,4.8,0.,4.8
1979-07-04 15:27:17.490 ,3,0,0.,4.8,16.,4.8,1.,4.8,0.,4.8
1979-07-04 15:27:22.290 ,3,0,0.,4.8,7.,4.8,3.,4.8,0.,4.8
1979-07-04 15:27:27.090 ,3,0,0.,4.8,13.,4.8,3.,4.8,1.,4.8
1979-07-04 15:27:31.890 ,3,0,0.,4.8,16.,4.8,0.,4.8,1.,4.8
1979-07-04 15:27:36.690 ,3,0,0.,4.8,13.,4.8,2.,4.8,0.,4.8
1979-07-04 15:27:41.490 ,3,0,0.,4.8,14.,4.8,3.,4.8,0.,4.8
1979-07-04 15:27:46.290 ,3,0,0.,4.8,17.,4.8,1.,4.8,1.,4.8
1979-07-04 15:27:51.090 ,3,0,0.,4.8,1.,4.8,2.,4.8,0.,4.8
1979-07-04 15:27:55.890 ,3,0,0.,4.8,5.,4.8,1.,4.8,0.,4.8
1979-07-04 15:28:00.690 ,4,0,0.,4.8,4.,4.8,1.,4.8,0.,4.8
1979-07-04 15:28:05.490 ,4,0,0.,4.8,20.,4.8,2.,4.8,0.,4.8
1979-07-04 15:28:10.290 ,4,0,0.,4.8,19.,4.8,3.,4.8,2.,4.8
1979-07-04 15:28:15.090 ,4,0,0.,4.8,23.,4.8,2.,4.8,0.,4.8
1979-07-04 15:28:19.890 ,4,0,0.,4.8,18.,4.8,2.,4.8,1.,4.8
1979-07-04 15:28:24.690 ,4,0,0.,4.8,9.,4.8,5.,4.8,1.,4.8
1979-07-04 15:28:29.490 ,4,0,0.,4.8,9.,4.8,1.,4.8,0.,4.8
1979-07-04 15:28:34.290 ,4,0,0.,4.8,13.,4.8,3.,4.8,0.,4.8
1979-07-04 15:28:39.090 ,4,0,0.,4.8,13.,4.8,3.,4.8,2.,4.8
1979-07-04 15:28:43.890 ,4,0,0.,4.8,9.,4.8,3.,4.8,1.,4.8
1979-07-04 15:28:48.690 ,5,0,0.,4.8,5.,4.8,3.,4.8,0.,4.8
1979-07-04 15:28:53.490 ,5,0,0.,4.8,13.,4.8,6.,4.8,1.,4.8
1979-07-04 15:28:58.290 ,5,0,0.,4.8,4.,4.8,2.,4.8,1.,4.8
1979-07-04 15:29:03.090 ,5,0,0.,4.8,5.,4.8,1.,4.8,2.,4.8
1979-07-04 15:29:07.890 ,5,0,0.,4.8,3.,4.8,2.,4.8,1.,4.8
1979-07-04 15:29:12.690 ,5,0,0.,4.8,4.,4.8,2.,4.8,0.,4.8
1979-07-04 15:29:17.490 ,5,0,0.,4.8,6.,4.8,1.,4.8,1.,4.8
1979-07-04 15:29:22.290 ,5,0,0.,4.8,5.,4.8,2.,4.8,1.,4.8
1979-07-04 15:29:27.090 ,5,0,0.,4.8,3.,4.8,0.,4.8,2.,4.8
1979-07-04 15:29:31.890 ,5,0,0.,4.8,9.,4.8,1.,4.8,0.,4.8
1979-07-04 15:29:36.690 ,6,0,0.,4.8,6.,4.8,6.,4.8,1.,4.8
1979-07-04 15:29:41.490 ,6,0,0.,4.8,7.,4.8,1.,4.8,1.,4.8
1979-07-04 15:29:46.290 ,6,0,0.,4.8,6.,4.8,0.,4.8,0.,4.8
1979-07-04 15:29:51.090 ,6,0,0.,4.8,6.,4.8,2.,4.8,4.,4.8
1979-07-04 15:29:55.890 ,6,0,0.,4.8,4.,4.8,0.,4.8,0.,4.8
1979-07-04 15:30:00.690 ,6,0,0.,4.8,5.,4.8,1.,4.8,3.,4.8
1979-07-04 15:30:05.490 ,6,0,0.,4.8,3.,4.8,2.,4.8,1.,4.8
1979-07-04 15:30:10.290 ,6,0,0.,4.8,1.,4.8,2.,4.8,2.,4.8
1979-07-04 15:30:15.090 ,6,0,0.,4.8,5.,4.8,4.,4.8,1.,4.8
1979-07-04 15:30:19.890 ,6,0,0.,4.8,4.,4.8,3.,4.8,0.,4.8
1979-07-04 15:30:24.690 ,7,0,0.,4.8,6.,4.8,1.,4.8,2.,4.8
1979-07-04 15:30:29.490 ,7,0,0.,4.8,4.,4.8,2.,4.8,1.,4.8
1979-07-04 15:30:34.290 ,7,0,0.,4.8,3.,4.8,1.,4.8,0.,4.8
1979-07-04 15:30:39.090 ,7,0,0.,4.8,1.,4.8,0.,4.8,0.,4.8
1979-07-04 15:30:43.890 ,7,0,0.,4.8,0.,4.8,0.,4.8,0.,4.8
1979-07-04 15:30:48.690 ,7,0,0.,4.8,1.,4.8,0.,4.8,0.,4.8
1979-07-04 15:30:53.490 ,7,0,0.,4.8,0.,4.8,0.,4.8,0.,4.8
1979-07-04 15:30:58.290 ,7,0,0.,4.8,0.,4.8,0.,4.8,0.,4.8
1979-07-04 15:31:03.090 ,7,0,0.,4.8,0.,4.8,0.,4.8,0.,4.8
1979-07-04 15:31:07.890 ,7,0,0.,4.8,0.,4.8,0.,4.8,0.,4.8
1979-07-04 15:31:12.690 ,3,1,0.,4.8,3.,4.8,0.,4.8,0.,4.8
1979-07-04 15:31:17.490 ,3,1,0.,4.8,5.,4.8,0.,4.8,1.,4.8
1979-07-04 15:31:22.290 ,3,1,0.,4.8,6.,4.8,1.,4.8,0.,4.8
1979-07-04 15:31:27.090 ,3,1,0.,4.8,8.,4.8,2.,4.8,1.,4.8
1979-07-04 15:31:31.890 ,3,1,0.,4.8,16.,4.8,2.,4.8,0.,4.8
1979-07-04 15:31:36.690 ,0,1,0.,4.8,11.,4.8,2.,4.8,2.,4.8
1979-07-04 15:31:41.490 ,0,1,0.,4.8,19.,4.8,1.,4.8,1.,4.8
1979-07-04 15:31:46.290 ,0,1,0.,4.8,17.,4.8,2.,4.8,0.,4.8
1979-07-04 15:31:51.090 ,0,1,0.,4.8,18.,4.8,2.,4.8,0.,4.8
1979-07-04 15:31:55.890 ,0,1,0.,4.8,17.,4.8,2.,4.8,1.,4.8
1979-07-04 15:32:00.690 ,4,1,0.,4.8,24.,4.8,1.,4.8,0.,4.8
1979-07-04 15:32:05.490 ,4,1,0.,4.8,12.,4.8,1.,4.8,1.,4.8
1979-07-04 15:32:10.290 ,4,1,0.,4.8,21.,4.8,2.,4.8,0.,4.8
1979-07-04 15:32:15.090 ,4,1,0.,4.8,14.,4.8,1.,4.8,1.,4.8
1979-07-04 15:32:19.890 ,4,1,0.,4.8,11.,4.8,1.,4.8,2.,4.8
1979-07-04 15:32:24.690 ,7,1,0.,4.8,16.,4.8,4.,4.8,1.,4.8
1979-07-04 15:32:29.490 ,7,1,0.,4.8,13.,4.8,1.,4.8,1.,4.8
1979-07-04 15:32:34.290 ,7,1,0.,4.8,6.,4.8,1.,4.8,0.,4.8
1979-07-04 15:32:39.090 ,7,1,0.,4.8,4.,4.8,0.,4.8,0.,4.8
1979-07-04 15:32:43.890 ,7,1,0.,4.8,0.,4.8,0.,4.8,0.,4.8
1979-07-04 15:32:48.690 ,3,1,0.,4.8,3.,4.8,1.,4.8,0.,4.8
1979-07-04 15:32:53.490 ,3,1,0.,4.8,3.,4.8,1.,4.8,0.,4.8
1979-07-04 15:32:58.290 ,3,1,0.,4.8,0.,4.8,3.,4.8,2.,4.8
1979-07-04 15:33:03.090 ,3,1,0.,4.8,9.,4.8,2.,4.8,1.,4.8